SCP
-0 -0 -0 -0 -0 -0 -0 -0 -0 0 0 0 -0 -0 -0 -0 -0 -0 0 0 0 0 0 -0 -0 0 -0 0 1 1 0 1 1 0 0 0 0 0 0 0 0 0 0
-0 -0 -0 -0 -0 -0 -0 -0 -0 -0 0 0 -0 -0 -0 -0 -0 -0 -0 0 0 0 0 0 -0 -0 -0 0 1 1 1 1 1 0 0 0 0 0 0 0 0 0 0
-0 -0 -0 -0 -0 -0 -0 -0 -0 -0 -0 0 0 -0 -0 -0 -0 -0 0 0 0 0 0 0 0 -0 -0 -0 0 1 1 1 1 0 0 0 0 0 0 0 1 1 0
-0 -0 -0 -0 -0 -0 -0 -0 -0 -0 -0 -0 -0 -0 0 0 0 -0 -0 0 0 0 0 0 0 0 0 0 1 1 2 2 1 1 1 0 0 1 1 1 1 1 0
-0 -0 -0 -0 -0 -0 -0 -0 -0 -0 -0 -0 -0 -0 0 0 0 -0 -0 0 0 0 -0 -0 0 0 1 1 1 1 2 2 2 1 0 0 0 1 1 1 1 0 0
-0 -0 -0 -0 -0 -0 -0 -0 -0 -0 -0 -0 -0 -0 -0 0 0 0 -0 -0 0 0 -0 -0 0 0 1 1 1 1 1 2 3 1 1 0 1 1 1 1 1 1 0
-0 -0 -1 -0 -0 -0 -0 -0 -0 -0 -0 -0 -0 -0 -0 0 -0 0 -0 -0 0 0 -0 -0 0 1 1 1 1 2 2 3 1 1 1 1 1 1 1 1 1 1 0
-0 -0 -1 -1 -1 -0 -0 -0 -1 -0 -0 -0 -0 -0 0 0 0 0 -0 -0 -0 0 0 -0 -0 0 1 1 1 2 3 1 1 0 0 1 1 1 1 1 1 0 0
-0 -0 -0 -1 -1 -0 -0 -0 -1 -0 -0 -1 -0 -0 -0 -0 -0 -0 0 -0 -0 0 -0 -0 0 1 2 2 2 3 3 0 1 0 -0 1 0 1 1 1 0 0 0
0 -0 -0 -0 -1 -0 -0 -0 -1 -1 -1 -1 -0 -0 -0 -0 -0 0 -0 -0 0 0 0 0 1 2 2 4 4 5 2 0 0 0 0 -0 -1 0 0 0 0 0 0
0 -0 -0 -0 -1 -0 -0 -0 -0 -1 -1 -1 -1 -0 -0 -0 -0 -0 -0 -0 -0 0 0 0 0 2 6 7 7 7 0 0 0 0 0 0 0 0 0 0 0 0 0
-0 -0 -0 -0 -0 -0 -0 -0 -0 -1 -1 -1 -1 -1 -0 -0 -0 -1 -0 -0 0 0 1 2 3 3 4 6 7 1 0 0 0 0 -0 0 0 0 1 0 0 0 0
-0 -0 -0 -0 -0 -0 -0 -0 -0 -1 -1 -1 -1 -1 -0 -0 -0 -0 -1 0 0 0 1 2 3 4 5 7 6 0 0 0 0 0 0 0 0 0 0 0 0 0 0
0 -0 -0 -0 -0 -0 -0 -0 -0 -0 -1 -1 -1 -1 -0 -0 -0 -0 0 0 1 1 2 3 4 5 6 6 3 1 0 0 0 0 0 0 0 0 0 0 0 0 0
0 -0 -1 -0 -0 -0 -0 -0 -0 -0 -0 -1 -0 -0 0 0 0 0 0 1 1 2 3 4 5 5 5 5 2 0 0 0 0 0 0 0 0 0 0 0 0 0 0
1 -0 -1 -1 -0 -0 -0 0 0 -0 0 0 0 0 0 0 1 0 1 1 1 2 3 4 4 3 4 3 1 0 0 0 0 0 0 0 0 0 0 0 0 0 0
2 1 -0 -1 -0 -0 0 0 0 0 0 1 0 0 -0 -0 0 1 1 1 2 3 3 3 2 3 1 1 1 0 1 0 0 0 0 0 0 0 0 0 0 0 0
2 2 1 1 0 -0 0 0 1 0 1 0 0 0 0 0 0 0 0 1 2 3 3 2 3 1 0 0 0 1 1 0 0 0 0 0 0 0 0 0 0 0 0
1 1 1 1 1 0 0 0 1 1 1 1 0 -0 -1 -1 -1 -0 1 1 3 3 2 2 1 1 0 0 1 0 0 0 0 0 0 0 0 0 0 0 0 0 0
1 0 1 1 0 0 0 0 0 0 0 1 -0 -1 -1 -2 -1 -0 1 2 3 3 2 1 1 1 0 0 0 0 0 0 0 0 0 0 0 0 0 0 0 0 0
3 1 0 1 1 1 0 0 -0 0 0 1 1 0 -1 -1 -1 0 2 2 2 2 2 2 2 0 0 0 0 0 0 0 0 0 0 0 0 0 0 0 0 0 0
3 3 2 1 1 1 1 1 -0 0 0 0 1 1 0 0 1 1 2 1 2 1 2 2 1 0 0 0 0 0 0 0 0 0 0 0 0 0 0 0 0 0 0
2 3 4 4 3 1 1 1 1 1 1 1 2 3 2 2 1 1 1 1 1 2 2 2 0 0 0 0 0 0 0 0 0 0 0 0 0 0 0 0 0 0 0
1 2 2 4 5 4 1 1 2 2 2 1 2 1 3 2 2 2 1 1 1 2 2 1 0 0 0 0 0 0 0 0 0 0 0 0 0 0 0 0 0 0 0
0 1 2 4 4 3 3 2 3 3 4 4 3 3 2 2 1 1 1 1 1 1 1 1 0 0 0 0 0 0 0 0 0 0 0 0 0 0 0 0 0 0 0
0 0 1 1 3 2 2 4 4 4 5 5 5 4 3 0 0 0 0 0 0 0 0 0 0 0 0 0 0 0 0 0 0 0 0 0 0 -0 0 0 0 0 0
Wind_Speed_500mb
72 68 65 65 60 59 59 56 50 48 42 51 49 48 36 35 34 25 11 16 16 19 19 21 21 10 13 16 21 28 33 31 28 31 33 16 3 11 15 18 13 35 29
75 75 73 70 70 69 64 63 59 56 51 48 47 45 35 25 31 26 20 27 29 24 32 23 24 19 20 24 30 32 32 30 29 33 32 17 11 23 5 34 16 35 39
84 85 82 80 76 75 70 68 68 65 58 50 47 43 33 34 35 28 29 40 35 30 25 28 24 23 27 31 30 35 31 34 34 36 34 12 9 38 15 27 28 32 43
86 89 91 87 86 80 71 68 67 70 65 56 52 51 50 47 46 41 34 40 32 32 28 27 28 33 34 35 31 31 34 32 31 34 36 34 32 27 25 16 37 43 45
88 93 99 93 91 83 78 72 66 72 73 65 59 57 54 51 48 44 35 28 36 39 30 31 34 30 29 29 29 27 31 33 35 40 40 43 47 40 36 49 58 54 39
91 92 95 94 92 87 83 78 71 68 74 70 65 62 58 56 53 49 48 40 38 44 34 34 31 26 26 26 28 30 28 29 30 32 39 35 41 49 37 44 51 49 41
90 89 94 101 97 93 89 84 78 73 71 73 68 69 62 56 55 50 46 44 41 33 35 39 42 44 35 26 32 33 29 25 30 32 44 42 33 38 39 43 48 47 26
89 95 99 100 105 98 91 86 83 77 68 72 71 67 70 63 57 55 52 48 46 46 44 43 39 42 38 30 33 38 33 27 24 31 40 45 34 38 41 36 36 32 15
68 96 98 104 105 103 97 91 87 79 71 63 63 68 69 74 70 60 56 61 55 50 44 45 45 41 39 36 32 37 31 24 39 44 43 37 40 41 36 28 19 10 11
59 88 99 103 106 101 96 90 87 81 72 67 61 56 61 70 73 72 69 63 60 57 55 50 53 49 35 34 36 34 34 20 59 70 46 42 44 40 25 19 8 11 12
69 93 98 101 102 97 95 91 87 82 76 69 64 62 58 60 65 68 66 65 60 56 51 46 43 48 53 46 46 45 40 37 45 78 70 50 31 28 21 12 12 13 14
85 96 100 99 99 95 91 90 88 85 79 72 68 64 59 57 60 62 59 59 61 59 57 56 59 61 60 51 51 53 46 29 27 25 45 15 25 18 11 9 14 15 25
84 92 90 96 99 93 89 85 85 83 77 72 68 64 61 60 57 59 57 55 53 50 51 55 60 60 56 53 46 45 49 34 35 24 17 12 16 2 11 15 18 22 24
44 87 88 95 96 92 85 78 75 77 75 75 70 63 59 57 53 49 49 48 46 47 48 49 48 46 44 40 36 31 33 27 13 12 7 11 0 11 11 19 21 21 19
24 87 93 98 97 88 80 75 68 70 71 68 67 61 54 50 48 49 48 46 47 48 46 44 40 39 32 25 26 25 21 6 25 10 6 5 2 6 12 14 18 24 23
25 61 99 96 93 88 81 77 70 67 65 66 61 52 51 52 51 48 47 47 46 44 42 39 28 24 22 25 23 17 10 9 11 3 6 3 7 8 10 23 27 26 30
54 80 91 89 86 82 75 76 70 64 67 62 55 53 46 47 50 50 49 48 44 38 33 23 20 24 21 19 15 9 9 12 10 13 5 4 10 11 21 23 22 25 31
42 49 64 71 71 69 67 65 64 65 63 61 58 55 54 53 51 48 44 41 35 31 24 20 22 21 20 15 10 12 18 20 20 7 2 2 11 13 20 17 16 23 30
37 31 46 52 57 59 60 59 60 63 65 64 64 62 59 57 54 48 40 33 33 30 22 25 21 19 15 14 16 16 27 23 23 18 10 5 4 18 18 14 21 30 31
31 37 33 37 38 44 51 58 62 62 66 71 70 64 62 59 55 46 36 35 36 31 29 26 20 15 19 24 19 23 28 25 21 15 11 9 14 17 16 20 31 32 31
22 16 15 26 26 27 38 39 47 61 64 66 67 69 66 60 51 41 37 42 39 35 32 23 24 22 23 25 30 27 21 15 14 13 13 12 16 15 19 28 31 29 26
19 17 12 2 7 15 18 32 40 42 48 59 62 63 59 53 47 43 46 43 41 41 37 33 33 29 36 38 33 21 17 13 13 19 17 14 16 17 23 26 29 28 24
8 9 8 8 12 16 25 35 39 39 46 57 56 58 53 53 50 49 50 49 46 47 45 42 36 51 47 45 29 26 14 11 13 16 14 15 16 20 24 23 25 25 28
3 5 9 12 15 20 26 31 34 35 45 54 57 56 56 60 54 53 48 54 55 51 51 44 54 58 51 45 44 34 21 16 15 14 16 21 23 24 25 28 30 26 27
7 8 13 16 16 17 25 37 37 36 49 58 58 64 64 60 60 55 56 55 49 48 47 44 55 58 58 52 42 33 23 21 15 16 19 22 23 26 26 24 23 26 28
18 16 17 19 22 20 29 40 37 35 54 60 69 69 70 66 61 62 63 52 48 41 33 34 38 47 44 46 40 28 22 21 18 20 21 23 22 21 16 15 19 28 28
Wind_Direction_500mb
190 188 188 194 193 193 195 201 208 207 204 204 189 192 194 198 201 201 251 234 270 297 274 239 231 240 283 297 301 302 312 323 319 326 340 24 108 25 1 3 283 310 320
189 189 188 192 196 196 200 203 209 210 211 209 203 199 195 180 199 203 238 246 266 289 281 274 240 247 264 265 277 290 307 316 318 327 337 343 336 318 294 349 311 335 319
190 190 189 195 198 201 203 209 210 213 215 214 209 205 197 203 224 222 232 247 260 277 290 285 272 262 263 273 279 284 307 311 319 324 329 333 302 330 318 330 329 331 338
194 193 191 195 199 206 210 213 215 213 218 216 217 209 204 207 219 226 241 239 248 276 287 297 297 281 278 281 285 286 292 299 304 314 321 310 313 314 313 308 337 343 336
192 194 195 196 201 206 211 216 219 217 218 219 218 216 214 215 217 225 223 241 257 266 276 288 302 294 294 299 301 295 290 297 306 316 320 321 320 321 316 324 332 339 349
192 197 199 198 201 207 212 216 219 222 221 220 220 219 220 222 222 224 225 231 246 262 267 288 294 298 298 310 315 300 295 301 299 314 327 330 329 326 322 326 331 338 352
189 191 192 197 199 204 209 215 220 222 224 224 219 220 225 225 230 228 226 236 249 246 269 284 286 285 287 296 321 302 300 307 315 335 336 333 330 332 323 325 330 341 11
188 190 196 199 201 202 207 214 220 222 225 226 223 222 225 229 232 231 229 233 240 244 256 268 285 289 275 273 305 313 298 307 312 336 327 331 340 330 331 331 333 340 7
204 191 197 201 202 203 208 214 220 223 225 226 230 229 227 228 234 236 234 236 237 241 248 254 262 284 270 272 293 305 303 306 308 322 340 335 342 338 339 348 350 356 357
227 194 195 200 204 206 208 211 219 224 226 228 229 235 236 232 236 240 245 247 248 253 255 261 262 269 268 270 273 282 277 286 306 303 320 333 332 333 356 0 31 21 355
213 192 192 200 204 205 206 207 214 220 224 229 233 234 238 241 239 240 245 250 253 254 258 263 266 265 270 270 265 261 256 214 299 279 296 319 318 346 358 33 29 8 333
195 189 190 193 195 200 204 207 210 218 223 229 234 238 240 241 243 244 246 248 253 258 262 266 267 269 270 269 267 265 262 262 275 279 282 336 333 355 68 10 356 336 331
184 185 183 186 191 194 198 202 206 215 223 228 234 238 241 240 242 243 246 250 256 259 261 264 268 272 275 276 281 272 278 293 279 272 274 307 325 80 21 3 338 324 329
170 180 179 183 186 192 196 201 207 213 221 227 232 235 237 238 241 242 246 251 256 261 266 271 274 278 287 291 285 288 296 301 272 233 222 333 332 9 350 334 333 342 11
187 181 182 184 186 189 195 201 206 210 217 224 230 235 238 240 242 243 246 252 259 266 272 275 278 286 286 287 278 296 308 345 189 178 290 149 52 337 332 349 7 28 38
224 191 182 188 187 189 194 201 206 210 216 223 231 234 235 238 243 245 249 254 260 267 274 280 285 282 274 263 273 286 276 322 154 195 150 315 355 8 8 15 22 29 45
166 171 177 183 187 190 195 201 207 211 216 222 230 233 235 237 239 244 250 255 261 267 269 272 266 258 260 272 272 249 223 181 156 159 167 90 41 24 26 23 24 42 60
137 159 172 179 187 191 198 203 208 212 218 224 231 235 238 242 245 246 247 252 258 255 255 246 240 241 251 243 235 205 170 174 149 155 196 337 1 26 29 23 39 59 78
111 147 165 172 183 189 197 202 205 213 217 224 231 236 240 241 242 242 244 248 242 235 227 219 222 233 215 206 210 204 186 163 153 164 178 220 53 39 31 37 85 82 78
104 112 130 177 187 198 204 207 210 212 219 225 230 233 236 238 239 239 238 234 227 217 206 210 216 189 194 189 208 194 164 163 171 169 160 126 56 45 57 83 94 86 76
86 100 132 133 135 199 217 221 224 228 233 232 232 233 234 235 236 233 226 222 215 195 191 187 171 181 191 195 171 166 175 191 180 158 138 87 64 69 94 99 94 81 83
105 91 67 72 206 215 214 230 240 249 241 236 232 232 230 229 224 220 217 210 197 183 176 179 175 171 170 170 162 160 165 149 137 134 115 85 82 99 110 109 99 76 85
97 93 129 206 219 263 259 243 249 251 237 230 225 220 214 219 217 217 207 195 186 180 175 176 176 169 173 165 175 171 165 121 119 110 97 90 99 103 102 97 113 100 80
25 273 252 232 232 246 269 260 256 243 225 218 211 205 209 207 211 208 203 194 186 183 180 180 176 172 173 173 177 178 187 170 150 131 113 105 104 95 91 103 106 101 85
332 272 266 271 250 290 275 255 259 237 216 212 207 203 203 207 204 197 195 196 193 198 184 184 184 182 182 185 191 196 191 169 158 145 126 116 101 87 81 98 113 107 99
328 289 262 265 254 264 260 252 258 239 217 207 204 203 203 205 202 190 188 186 184 175 181 195 191 188 191 187 189 191 180 172 173 155 135 121 121 106 100 94 97 117 108
Wind_Speed_850mb
72 68 65 65 60 59 59 56 50 48 42 51 49 48 36 35 34 25 11 16 16 19 19 21 21 10 13 16 21 28 33 31 28 31 33 16 3 11 15 18 13 35 29
75 75 73 70 70 69 64 63 59 56 51 48 47 45 35 25 31 26 20 27 29 24 32 23 24 19 20 24 30 32 32 30 29 33 32 17 11 23 5 34 16 35 39
84 85 82 80 76 75 70 68 68 65 58 50 47 43 33 34 35 28 29 40 35 30 25 28 24 23 27 31 30 35 31 34 34 36 34 12 9 38 15 27 28 32 43
86 89 91 87 86 80 71 68 67 70 65 56 52 51 50 47 46 41 34 40 32 32 28 27 28 33 34 35 31 31 34 32 31 34 36 34 32 27 25 16 37 43 45
88 93 99 93 91 83 78 72 66 72 73 65 59 57 54 51 48 44 35 28 36 39 30 31 34 30 29 29 29 27 31 33 35 40 40 43 47 40 36 49 58 54 39
91 92 95 94 92 87 83 78 71 68 74 70 65 62 58 56 53 49 48 40 38 44 34 34 31 26 26 26 28 30 28 29 30 32 39 35 41 49 37 44 51 49 41
90 89 94 101 97 93 89 84 78 73 71 73 68 69 62 56 55 50 46 44 41 33 35 39 42 44 35 26 32 33 29 25 30 32 44 42 33 38 39 43 48 47 26
89 95 99 100 105 98 91 86 83 77 68 72 71 67 70 63 57 55 52 48 46 46 44 43 39 42 38 30 33 38 33 27 24 31 40 45 34 38 41 36 36 32 15
68 96 98 104 105 103 97 91 87 79 71 63 63 68 69 74 70 60 56 61 55 50 44 45 45 41 39 36 32 37 31 24 39 44 43 37 40 41 36 28 19 10 11
59 88 99 103 106 101 96 90 87 81 72 67 61 56 61 70 73 72 69 63 60 57 55 50 53 49 35 34 36 34 34 20 59 70 46 42 44 40 25 19 8 11 12
69 93 98 101 102 97 95 91 87 82 76 69 64 62 58 60 65 68 66 65 60 56 51 46 43 48 53 46 46 45 40 37 45 78 70 50 31 28 21 12 12 13 14
85 96 100 99 99 95 91 90 88 85 79 72 68 64 59 57 60 62 59 59 61 59 57 56 59 61 60 51 51 53 46 29 27 25 45 15 25 18 11 9 14 15 25
84 92 90 96 99 93 89 85 85 83 77 72 68 64 61 60 57 59 57 55 53 50 51 55 60 60 56 53 46 45 49 34 35 24 17 12 16 2 11 15 18 22 24
44 87 88 95 96 92 85 78 75 77 75 75 70 63 59 57 53 49 49 48 46 47 48 49 48 46 44 40 36 31 33 27 13 12 7 11 0 11 11 19 21 21 19
24 87 93 98 97 88 80 75 68 70 71 68 67 61 54 50 48 49 48 46 47 48 46 44 40 39 32 25 26 25 21 6 25 10 6 5 2 6 12 14 18 24 23
25 61 99 96 93 88 81 77 70 67 65 66 61 52 51 52 51 48 47 47 46 44 42 39 28 24 22 25 23 17 10 9 11 3 6 3 7 8 10 23 27 26 30
54 80 91 89 86 82 75 76 70 64 67 62 55 53 46 47 50 50 49 48 44 38 33 23 20 24 21 19 15 9 9 12 10 13 5 4 10 11 21 23 22 25 31
42 49 64 71 71 69 67 65 64 65 63 61 58 55 54 53 51 48 44 41 35 31 24 20 22 21 20 15 10 12 18 20 20 7 2 2 11 13 20 17 16 23 30
37 31 46 52 57 59 60 59 60 63 65 64 64 62 59 57 54 48 40 33 33 30 22 25 21 19 15 14 16 16 27 23 23 18 10 5 4 18 18 14 21 30 31
31 37 33 37 38 44 51 58 62 62 66 71 70 64 62 59 55 46 36 35 36 31 29 26 20 15 19 24 19 23 28 25 21 15 11 9 14 17 16 20 31 32 31
22 16 15 26 26 27 38 39 47 61 64 66 67 69 66 60 51 41 37 42 39 35 32 23 24 22 23 25 30 27 21 15 14 13 13 12 16 15 19 28 31 29 26
19 17 12 2 7 15 18 32 40 42 48 59 62 63 59 53 47 43 46 43 41 41 37 33 33 29 36 38 33 21 17 13 13 19 17 14 16 17 23 26 29 28 24
8 9 8 8 12 16 25 35 39 39 46 57 56 58 53 53 50 49 50 49 46 47 45 42 36 51 47 45 29 26 14 11 13 16 14 15 16 20 24 23 25 25 28
3 5 9 12 15 20 26 31 34 35 45 54 57 56 56 60 54 53 48 54 55 51 51 44 54 58 51 45 44 34 21 16 15 14 16 21 23 24 25 28 30 26 27
7 8 13 16 16 17 25 37 37 36 49 58 58 64 64 60 60 55 56 55 49 48 47 44 55 58 58 52 42 33 23 21 15 16 19 22 23 26 26 24 23 26 28
18 16 17 19 22 20 29 40 37 35 54 60 69 69 70 66 61 62 63 52 48 41 33 34 38 47 44 46 40 28 22 21 18 20 21 23 22 21 16 15 19 28 28
Wind_Direction_850mb
190 188 188 194 193 193 195 201 208 207 204 204 189 192 194 198 201 201 251 234 270 297 274 239 231 240 283 297 301 302 312 323 319 326 340 24 108 25 1 3 283 310 320
189 189 188 192 196 196 200 203 209 210 211 209 203 199 195 180 199 203 238 246 266 289 281 274 240 247 264 265 277 290 307 316 318 327 337 343 336 318 294 349 311 335 319
190 190 189 195 198 201 203 209 210 213 215 214 209 205 197 203 224 222 232 247 260 277 290 285 272 262 263 273 279 284 307 311 319 324 329 333 302 330 318 330 329 331 338
194 193 191 195 199 206 210 213 215 213 218 216 217 209 204 207 219 226 241 239 248 276 287 297 297 281 278 281 285 286 292 299 304 314 321 310 313 314 313 308 337 343 336
192 194 195 196 201 206 211 216 219 217 218 219 218 216 214 215 217 225 223 241 257 266 276 288 302 294 294 299 301 295 290 297 306 316 320 321 320 321 316 324 332 339 349
192 197 199 198 201 207 212 216 219 222 221 220 220 219 220 222 222 224 225 231 246 262 267 288 294 298 298 310 315 300 295 301 299 314 327 330 329 326 322 326 331 338 352
189 191 192 197 199 204 209 215 220 222 224 224 219 220 225 225 230 228 226 236 249 246 269 284 286 285 287 296 321 302 300 307 315 335 336 333 330 332 323 325 330 341 11
188 190 196 199 201 202 207 214 220 222 225 226 223 222 225 229 232 231 229 233 240 244 256 268 285 289 275 273 305 313 298 307 312 336 327 331 340 330 331 331 333 340 7
204 191 197 201 202 203 208 214 220 223 225 226 230 229 227 228 234 236 234 236 237 241 248 254 262 284 270 272 293 305 303 306 308 322 340 335 342 338 339 348 350 356 357
227 194 195 200 204 206 208 211 219 224 226 228 229 235 236 232 236 240 245 247 248 253 255 261 262 269 268 270 273 282 277 286 306 303 320 333 332 333 356 0 31 21 355
213 192 192 200 204 205 206 207 214 220 224 229 233 234 238 241 239 240 245 250 253 254 258 263 266 265 270 270 265 261 256 214 299 279 296 319 318 346 358 33 29 8 333
195 189 190 193 195 200 204 207 210 218 223 229 234 238 240 241 243 244 246 248 253 258 262 266 267 269 270 269 267 265 262 262 275 279 282 336 333 355 68 10 356 336 331
184 185 183 186 191 194 198 202 206 215 223 228 234 238 241 240 242 243 246 250 256 259 261 264 268 272 275 276 281 272 278 293 279 272 274 307 325 80 21 3 338 324 329
170 180 179 183 186 192 196 201 207 213 221 227 232 235 237 238 241 242 246 251 256 261 266 271 274 278 287 291 285 288 296 301 272 233 222 333 332 9 350 334 333 342 11
187 181 182 184 186 189 195 201 206 210 217 224 230 235 238 240 242 243 246 252 259 266 272 275 278 286 286 287 278 296 308 345 189 178 290 149 52 337 332 349 7 28 38
224 191 182 188 187 189 194 201 206 210 216 223 231 234 235 238 243 245 249 254 260 267 274 280 285 282 274 263 273 286 276 322 154 195 150 315 355 8 8 15 22 29 45
166 171 177 183 187 190 195 201 207 211 216 222 230 233 235 237 239 244 250 255 261 267 269 272 266 258 260 272 272 249 223 181 156 159 167 90 41 24 26 23 24 42 60
137 159 172 179 187 191 198 203 208 212 218 224 231 235 238 242 245 246 247 252 258 255 255 246 240 241 251 243 235 205 170 174 149 155 196 337 1 26 29 23 39 59 78
111 147 165 172 183 189 197 202 205 213 217 224 231 236 240 241 242 242 244 248 242 235 227 219 222 233 215 206 210 204 186 163 153 164 178 220 53 39 31 37 85 82 78
104 112 130 177 187 198 204 207 210 212 219 225 230 233 236 238 239 239 238 234 227 217 206 210 216 189 194 189 208 194 164 163 171 169 160 126 56 45 57 83 94 86 76
86 100 132 133 135 199 217 221 224 228 233 232 232 233 234 235 236 233 226 222 215 195 191 187 171 181 191 195 171 166 175 191 180 158 138 87 64 69 94 99 94 81 83
105 91 67 72 206 215 214 230 240 249 241 236 232 232 230 229 224 220 217 210 197 183 176 179 175 171 170 170 162 160 165 149 137 134 115 85 82 99 110 109 99 76 85
97 93 129 206 219 263 259 243 249 251 237 230 225 220 214 219 217 217 207 195 186 180 175 176 176 169 173 165 175 171 165 121 119 110 97 90 99 103 102 97 113 100 80
25 273 252 232 232 246 269 260 256 243 225 218 211 205 209 207 211 208 203 194 186 183 180 180 176 172 173 173 177 178 187 170 150 131 113 105 104 95 91 103 106 101 85
332 272 266 271 250 290 275 255 259 237 216 212 207 203 203 207 204 197 195 196 193 198 184 184 184 182 182 185 191 196 191 169 158 145 126 116 101 87 81 98 113 107 99
328 289 262 265 254 264 260 252 258 239 217 207 204 203 203 205 202 190 188 186 184 175 181 195 191 188 191 187 189 191 180 172 173 155 135 121 121 106 100 94 97 117 108